EHI
9 8 7 6 5 4 3 3 2 2 1 0 0 0 0 0 0 0 0 0 0 0 0 0 0 0 0 0 0 0 0 0 0 0 0 0 0 0 0 0 0 0 0
8 7 6 5 4 3 3 2 1 1 0 0 0 0 0 0 0 0 0 0 0 0 0 0 0 0 0 0 0 0 0 0 0 0 0 0 0 0 0 0 0 0 0
6 5 4 3 3 3 2 1 0 0 0 0 0 0 0 0 0 0 0 0 0 0 0 0 0 0 0 0 0 0 0 0 0 0 0 0 0 0 0 0 0 0 0
4 3 3 3 3 2 1 0 0 0 0 0 0 0 0 0 0 0 0 0 0 0 0 0 0 0 0 0 0 0 0 0 0 0 0 0 0 0 0 0 0 0 0
3 3 3 2 1 1 0 0 0 0 0 0 0 0 0 0 0 0 0 0 0 0 0 0 0 0 0 0 0 0 0 0 0 0 0 0 0 0 0 0 0 0 0
2 2 1 1 0 0 0 0 0 0 0 0 0 0 0 0 0 0 0 0 0 0 0 0 0 0 0 0 0 0 0 0 0 0 0 0 0 0 0 0 0 0 0
1 1 0 0 0 0 0 0 0 0 0 0 0 0 0 0 0 0 0 0 0 0 0 0 0 0 0 0 0 0 0 0 0 0 0 0 0 0 0 0 0 0 0
0 0 0 0 0 0 0 0 0 0 0 0 0 0 0 0 0 0 0 0 0 0 0 0 0 0 0 0 0 0 0 0 0 0 0 0 0 0 0 0 0 0 0
0 0 0 0 0 0 0 0 0 0 0 0 0 0 0 0 0 0 0 0 0 0 0 0 0 0 0 0 0 0 0 0 0 0 0 0 0 0 0 0 0 0 0
0 0 0 0 0 0 0 0 0 0 0 0 0 0 0 0 0 0 0 0 0 0 0 0 0 0 0 0 0 0 0 0 0 0 0 0 0 0 0 0 0 0 0
0 0 0 0 0 0 0 0 0 0 0 0 0 0 0 0 0 0 0 0 0 0 0 0 0 0 0 0 0 0 0 0 0 0 0 0 0 0 0 0 0 0 0
0 0 0 0 0 0 0 0 0 0 0 0 0 0 0 0 0 0 0 0 0 0 0 0 0 0 0 0 0 0 0 0 0 0 0 0 0 0 0 0 0 0 0
0 0 0 0 0 0 0 0 0 0 0 0 0 0 0 0 0 0 0 0 0 0 0 0 0 0 0 0 0 0 0 0 0 0 0 0 0 0 0 0 0 0 0
0 0 0 0 0 0 0 0 0 0 0 0 0 0 0 0 0 0 0 0 0 0 0 0 0 0 0 0 0 0 0 0 0 0 0 0 0 0 0 0 0 0 0
0 0 0 0 0 0 0 0 0 0 0 0 0 0 0 0 0 0 0 0 0 0 0 0 0 0 0 0 0 0 0 0 0 0 0 0 0 0 0 0 0 0 0
0 0 0 0 0 0 0 0 0 0 0 0 0 0 0 0 0 0 0 0 0 0 0 0 0 0 0 0 0 0 0 0 0 0 0 0 0 0 0 0 0 0 0
0 0 0 0 0 0 0 0 0 0 0 0 0 0 0 0 0 0 0 0 0 0 0 0 0 0 0 0 0 0 0 0 0 0 0 0 0 0 0 0 0 0 0
0 0 0 0 0 0 0 0 0 0 0 0 0 0 0 0 0 0 0 0 0 0 0 0 0 0 0 0 0 0 0 0 0 0 0 0 0 0 0 0 0 0 0
0 0 0 0 0 0 0 0 0 0 0 0 0 0 0 0 0 0 0 0 0 0 0 0 0 0 0 0 0 0 0 0 0 0 0 0 0 0 0 0 0 0 0
0 0 0 0 0 0 0 0 0 0 0 0 0 0 0 0 0 0 0 0 0 0 0 0 0 0 0 0 0 0 0 0 0 0 0 0 0 0 0 0 0 0 0
0 0 0 0 0 0 0 0 0 0 0 0 0 0 0 0 0 0 0 0 0 0 0 0 0 0 0 0 0 0 0 0 0 0 0 0 0 0 0 0 0 0 0
0 0 0 0 0 0 0 0 0 0 0 0 0 0 0 0 0 0 0 0 0 0 0 0 0 0 0 0 0 0 0 0 0 0 0 0 0 0 0 0 0 0 0
0 0 0 0 0 0 0 0 0 0 0 0 0 0 0 0 0 0 0 0 0 0 0 0 0 0 0 0 0 0 0 0 0 0 0 0 0 0 0 0 0 0 0
0 0 0 0 0 0 0 0 0 0 0 0 0 0 0 0 0 0 0 0 0 0 0 0 0 0 0 0 0 0 0 0 0 0 0 0 0 0 0 0 0 0 0
0 0 0 0 0 0 0 0 0 0 0 0 0 0 0 0 0 0 0 0 0 0 0 0 0 0 0 0 0 0 0 0 0 0 0 0 0 0 0 0 0 0 0
0 0 0 0 0 0 0 0 0 0 0 0 0 0 0 0 0 0 0 0 0 0 0 0 0 0 0 0 0 0 0 0 0 0 0 0 0 0 0 0 0 0 0
Wind_Speed
4 3 2 2 1 1 1 2 2 3 3 4 4 4 4 4 4 4 4 4 4 3 2 2 2 3 2 2 2 3 3 2 1 1 1 2 2 1 1 1 1 2 2
4 3 3 2 1 1 1 2 2 2 3 3 4 4 4 4 4 4 4 4 4 3 3 3 3 2 2 2 2 3 2 2 2 2 2 2 2 2 1 2 1 1 0
4 3 3 2 1 1 1 1 1 2 2 3 3 4 4 4 4 4 4 4 4 3 3 3 3 2 2 2 2 2 1 1 2 2 2 2 2 2 2 2 1 1 1
4 3 3 2 2 1 1 1 1 2 3 3 3 4 4 4 4 4 3 3 3 3 3 3 3 3 3 2 2 1 1 1 2 3 2 2 2 2 3 2 2 2 2
4 4 3 2 2 1 0 1 1 2 2 3 3 3 3 3 4 5 4 3 3 3 3 2 3 3 4 3 2 1 1 2 2 2 2 2 2 2 2 2 1 1 2
4 3 2 2 2 1 0 0 1 2 2 2 3 3 3 3 4 5 6 4 3 3 3 2 1 1 0 1 1 2 3 2 2 2 2 2 2 2 1 2 2 2 2
4 3 3 3 2 1 1 0 1 1 2 2 3 3 3 3 2 3 5 5 3 3 3 3 3 3 2 1 2 4 3 2 3 4 3 3 2 1 2 3 2 3 3
4 4 3 3 2 1 1 0 1 1 2 2 2 3 3 3 1 3 5 4 3 2 3 3 2 2 3 4 2 1 2 2 3 4 4 3 2 2 3 4 3 4 4
4 4 3 3 2 2 1 1 1 1 2 2 2 2 3 2 1 3 6 3 2 2 3 3 3 2 3 4 3 1 1 2 2 2 3 3 2 3 4 4 4 4 4
4 3 2 2 2 1 1 1 1 2 2 3 2 2 3 3 2 3 5 4 2 2 1 1 1 2 3 4 3 2 3 3 2 2 3 5 6 7 8 7 6 5 4
3 3 2 2 1 1 1 2 2 3 3 3 3 3 2 2 1 1 4 4 4 4 3 2 1 1 2 4 5 4 4 5 4 4 4 4 5 5 6 7 6 5 5
3 3 2 2 1 0 1 2 3 3 3 3 3 3 2 1 1 1 2 4 6 5 4 3 2 2 3 5 5 3 4 6 5 4 4 4 4 3 3 4 4 6 6
4 3 2 2 1 1 2 3 3 3 3 3 2 3 2 1 1 4 5 5 5 5 4 4 5 5 5 6 6 6 6 5 4 4 4 4 3 3 3 3 5 6 8
4 3 3 3 3 2 3 3 3 3 3 3 3 3 3 3 2 1 2 3 5 5 4 4 7 8 7 6 6 6 5 4 4 4 4 4 4 4 4 5 5 5 6
4 3 3 3 2 2 2 2 4 3 3 5 5 5 5 4 4 5 5 5 5 5 6 6 5 4 4 4 4 4 4 5 5 5 5 5 5 5 5 5 5 6 6
4 4 4 3 2 3 2 2 3 5 4 6 8 8 6 5 5 6 6 7 7 6 6 6 5 4 5 4 4 4 4 4 4 4 5 5 5 5 5 5 6 7 7
4 4 3 3 3 3 3 3 3 4 8 10 11 11 11 10 9 8 9 9 9 6 7 6 5 5 5 5 5 5 5 4 4 5 6 6 6 6 6 6 7 7 7
5 4 4 4 4 3 4 4 4 4 4 4 7 12 12 12 11 10 9 7 7 7 7 6 5 5 5 5 5 5 5 5 5 5 6 6 6 7 7 7 7 7 8
5 4 4 3 4 4 4 5 5 5 5 5 5 4 8 9 11 10 8 8 7 6 6 6 6 6 5 5 6 5 6 6 6 6 6 7 7 7 7 8 7 8 9
5 4 5 5 5 5 5 5 5 5 5 5 5 5 3 5 6 5 6 6 7 7 6 6 6 6 6 6 6 6 6 6 7 7 7 7 7 8 9 10 9 9 9
5 5 7 7 6 5 5 5 6 6 6 5 6 4 5 7 7 6 6 6 6 6 6 6 6 6 6 5 6 6 7 7 7 7 7 7 8 8 8 9 9 9 9
4 4 5 5 4 4 5 6 6 6 7 7 6 4 5 7 7 6 6 6 6 6 6 6 7 6 6 6 6 6 7 7 7 7 8 8 8 8 8 9 9 9 9
6 6 5 5 5 5 6 7 7 7 7 6 6 6 5 6 6 6 7 6 6 6 6 6 7 7 6 6 6 7 7 8 8 8 8 9 9 9 9 10 12 12 11
6 6 6 6 6 6 6 6 6 6 7 6 6 6 7 6 7 7 8 7 7 7 7 7 7 8 9 8 7 7 6 7 9 9 11 11 11 10 10 10 11 12 12
6 6 6 6 6 6 6 6 6 6 6 6 6 6 7 7 7 7 7 7 8 7 7 7 6 7 8 9 8 7 5 4 5 8 10 10 12 12 12 13 11 12 12
6 6 5 5 5 5 6 6 6 7 6 6 6 6 7 7 7 6 6 6 7 6 6 6 7 8 9 8 8 7 4 4 5 6 8 9 11 11 11 10 13 12 13
Wind_Direction
153 146 135 126 112 87 56 36 9 357 350 347 348 342 346 353 351 343 343 340 335 342 330 321 314 306 294 279 272 265 262 259 226 139 122 131 175 200 167 240 226 245 130
147 141 136 133 110 78 63 29 4 358 348 352 348 344 351 3 351 345 342 342 340 341 340 334 318 309 291 288 282 274 271 252 218 176 171 168 177 193 196 245 241 244 93
153 148 138 138 125 107 78 29 5 353 349 346 346 351 357 356 351 353 345 346 346 342 338 335 327 317 304 305 280 269 254 226 211 198 186 164 175 183 207 219 207 241 239
158 149 145 146 140 122 97 36 7 354 357 355 357 359 358 356 353 354 354 359 357 349 342 335 333 327 324 312 281 260 240 218 199 201 185 174 178 185 218 213 206 214 252
166 165 156 153 150 142 76 26 8 351 356 2 356 354 355 352 4 354 342 342 339 331 330 347 3 7 350 327 321 303 240 223 211 200 198 193 182 195 219 242 248 246 238
177 168 153 163 165 156 184 353 355 354 356 357 354 352 354 14 26 349 324 319 319 327 340 344 353 360 44 183 230 305 309 272 257 246 233 215 216 220 243 252 265 271 260
173 172 169 182 180 184 241 318 357 343 339 346 350 348 359 28 17 331 325 311 313 326 330 330 347 20 338 335 180 198 214 249 269 280 266 255 238 218 245 249 259 281 291
176 178 182 189 188 200 228 293 329 325 322 336 337 343 347 16 21 315 312 289 304 318 326 336 343 344 353 329 290 268 254 237 243 245 261 260 256 246 245 253 256 254 249
181 181 187 195 193 208 228 285 302 302 301 302 311 326 330 354 0 311 305 299 320 329 332 346 338 340 11 331 296 290 285 267 222 241 291 285 288 255 255 255 245 246 255
183 181 191 205 212 221 250 280 297 288 285 291 321 320 317 329 19 317 303 299 320 313 304 306 34 327 340 319 294 291 282 282 280 233 224 224 226 221 219 238 258 265 272
177 176 184 195 208 217 261 280 285 290 303 303 308 300 298 312 278 274 295 298 312 312 315 315 16 110 283 291 284 279 282 290 273 247 239 232 227 223 221 221 238 262 277
174 174 168 181 228 182 259 274 279 285 272 269 277 282 274 251 280 227 251 274 301 304 305 312 360 11 303 286 277 269 268 271 259 249 247 244 247 247 243 244 240 256 267
177 176 176 194 227 254 263 262 262 261 273 285 288 291 301 310 195 198 224 244 260 277 302 329 312 292 284 261 243 251 254 249 253 256 259 257 257 262 263 248 241 243 249
184 187 196 213 229 231 252 258 272 284 290 296 305 308 310 299 300 286 249 233 227 240 265 256 241 249 252 264 261 241 241 257 267 271 275 273 266 254 247 252 253 246 243
192 202 217 228 241 261 262 286 291 310 324 303 308 309 311 312 358 358 317 308 316 327 311 278 266 259 254 250 251 257 254 243 238 242 254 257 253 253 252 248 250 258 259
198 210 223 230 239 259 265 255 232 249 252 249 259 278 293 293 300 298 293 288 288 294 285 271 274 273 277 280 276 267 254 251 254 260 260 261 264 264 263 259 253 253 259
216 224 240 245 247 251 263 276 276 238 232 237 240 244 250 271 279 276 274 275 271 257 254 263 275 280 281 278 276 276 277 276 277 271 268 265 264 263 262 262 264 263 262
222 217 237 246 255 263 271 277 280 284 277 267 234 229 236 246 254 257 258 264 250 226 247 264 273 276 276 275 274 275 275 271 265 264 263 263 265 266 265 263 262 263 268
228 231 236 256 260 262 267 271 275 281 284 287 289 235 222 235 236 240 233 248 268 269 267 271 273 274 274 272 270 269 268 268 268 267 264 261 262 263 263 264 265 264 265
227 237 250 260 260 260 262 270 276 279 279 283 287 294 282 272 271 248 232 249 264 272 277 278 279 281 280 278 274 269 266 265 264 260 261 262 263 264 266 267 270 269 266
230 210 214 242 254 264 271 276 279 281 283 283 285 301 307 291 287 287 284 279 281 285 286 284 278 273 269 267 268 271 273 275 273 271 271 269 267 267 268 269 270 270 272
248 245 244 255 265 271 280 279 278 277 279 283 290 280 236 264 282 286 284 284 284 281 280 279 279 278 278 274 272 270 271 274 278 280 281 280 276 274 273 272 274 276 274
245 250 255 260 266 263 261 269 275 280 284 289 294 299 290 289 293 291 290 288 286 285 281 276 274 276 277 275 277 280 284 287 288 289 285 281 279 277 274 273 274 275 275
247 253 260 264 267 271 276 281 283 286 289 291 289 288 291 294 293 295 295 294 290 286 282 279 279 284 289 289 286 283 289 299 299 294 290 285 282 279 278 277 278 280 280
252 256 263 269 276 281 286 289 292 294 295 295 293 292 294 294 294 296 299 300 299 294 293 289 286 286 289 291 292 296 314 314 296 297 294 287 284 283 282 282 281 283 283
254 260 269 274 277 280 282 285 289 294 296 296 296 297 296 296 299 302 300 297 297 297 296 293 296 296 295 292 300 308 303 290 283 278 281 281 281 281 284 282 282 280 281